Regional Weather Roundup
Issued by NWS

Home | Current Version | Previous Version | Text Only | Print | Product List | Glossary On
Versions: 1 2 3 4 5 6 7 8 9 10 11 12 13 14 15 16 17 18 19 20 21 22 23 24 25 26 27 28 29 30 31 32 33 34 35 36 37 38 39 40 41 42 43 44 45 46 47 48 49 50
000
ASUS43 KTOP 271508
RWRKS

WEATHER ROUNDUP FOR KANSAS
NATIONAL WEATHER SERVICE GOODLAND KS
1000 AM CDT MON JUL 27 2015

NOTE:  "FAIR" INDICATES FEW OR NO CLOUDS BELOW 12,000 FEET WITH NO
SIGNIFICANT WEATHER AND/OR OBSTRUCTIONS TO VISIBILITY.

KSZ001>006-013>018-027>032-041>047-271600-
NORTHWEST KANSAS

CITY           SKY/WX    TMP DP  RH WIND       PRES   REMARKS
GOODLAND       MOSUNNY   74  66  76 S16       29.91F
HAYS           PTSUNNY   79  63  57 S9        29.90S
HILL CITY      MOSUNNY   79  67  66 S9        29.91S
RUSSELL        PTSUNNY   76  69  79 SW8       29.90R
$$

KSZ061>065-074>080-084>089-271600-
SOUTHWEST KANSAS

CITY           SKY/WX    TMP DP  RH WIND       PRES   REMARKS
DODGE CITY     MOSUNNY   79  64  60 S17       29.96F
ELKHART          N/A     79  64  60 SE14        N/A
GARDEN CITY    MOSUNNY   77  66  68 S15G25    29.93F
GREAT BEND     MOSUNNY   82  68  61 S13       29.92S
LIBERAL        SUNNY     81  66  61 SE18      29.96F
PRATT          PTSUNNY   81  61  50 S12       29.97R
$$

KSZ066>073-081>083-090>101-271600-
SOUTHEAST KANSAS

CITY           SKY/WX    TMP DP  RH WIND       PRES   REMARKS
CHANUTE        MOSUNNY   84  75  74 S12       29.95S
COFFEYVILLE    MOSUNNY   88  76  67 S7        29.94S HX  99
HUTCHINSON     MOSUNNY   86  66  51 S16       29.92R
MEDICINE LODGE   N/A     82  68  62 S6        29.94F
NEWTON         PTSUNNY   84  64  51 S13G22    29.95R
PARSONS        PTSUNNY   87  78  74 SW7       29.96S HX 100
WICHITA INTL   PTSUNNY   82  72  71 SE14      29.92F
WICHITA JABRA  PTSUNNY   85  72  65 SE13      29.92F
WICHITA MCCONL PTSUNNY   83  71  67 SE10      29.93F
WINFIELD       PTSUNNY   83  72  69 S7        29.96R
$$

KSZ007>012-019>026-033>040-048>060-102>105-271600-
NORTHEAST KANSAS

CITY           SKY/WX    TMP DP  RH WIND       PRES   REMARKS
CONCORDIA      CLOUDY    75  69  81 E8        29.92R
EMPORIA        PTSUNNY   83  69  62 SE6       29.93S
LAWRENCE       PTSUNNY   84  74  71 S7        29.92S
MANHATTAN      CLOUDY    79  70  74 S3        29.91R
MARYSVILLE     CLOUDY    79  72  78 SE7       29.90R
OLATHE IND     PTSUNNY   83  74  74 S7        29.94F
OLATHE EXE     PTSUNNY   82  74  76 S6        29.93F
SALINA         PTSUNNY   79  70  74 SE3       29.92R
TOPEKA BILLARD PTSUNNY   83  75  77 SE6       29.91S
TOPEKA FORBES  PTSUNNY   85  73  67 SE7       29.91F
$$



USA.gov is the U.S. government's official web portal to all federal, state and local government web resources and services.